Location: Vancouver
(49.2500°N, 123.1330°W)
Time: 04:18:56
(UTC-07:00)

BREEZE-M DEB (TANK) - Visible Passes

Search period start: 25 July 2014 00:00
Search period end: 04 August 2014 00:00
Orbit: 269 x 13685 km, 49.6° (Epoch: 24 July)

Date Brightness Start Highest point End Pass type
(mag) Time Alt. Az. Time Alt. Az. Time Alt. Az.
25 Jul 8.5 00:05:54 10° WNW 01:17:24 53° WSW 02:34:22 21° SSW visible
25 Jul 8.6 21:12:01 10° WNW 22:08:53 82° SW 23:53:11 18° SSE visible
26 Jul 8.7 01:54:40 10° NW 02:55:39 32° W 04:08:58 10° SW visible
26 Jul 8.5 22:56:02 10° WNW 00:05:05 64° WSW 01:27:57 24° S visible
27 Jul 9.2 03:58:43 10° NW 04:25:59 13° WNW 04:57:02 10° W visible
27 Jul 8.7 20:03:55 10° W 20:48:37 88° SSW 22:47:02 13° SE visible
28 Jul 8.6 00:42:16 10° NW 01:48:49 42° W 03:02:53 17° SW visible
28 Jul 8.5 21:46:53 10° WNW 22:49:15 74° SW 00:22:06 23° SSE visible
29 Jul 8.9 02:34:35 10° NW 03:23:09 22° WNW 04:23:25 10° WSW visible
29 Jul 8.7 18:56:15 10° W 19:29:56 89° N 21:35:48 10° ESE visible
29 Jul 8.6 23:31:29 10° WNW 00:39:11 53° WSW 01:57:17 22° SSW visible
30 Jul 8.6 20:38:17 10° WNW 21:30:30 82° SW 23:16:42 18° SSE visible
31 Jul 8.8 01:19:24 10° NW 02:18:09 32° W 03:32:35 11° SW visible
31 Jul 8.6 22:21:41 10° WNW 23:26:21 64° WSW 00:52:06 23° S visible
01 Aug 9.2 03:21:56 10° NW 03:49:11 13° WNW 04:21:00 10° W visible
01 Aug 8.7 19:30:07 10° W 20:10:55 88° SSW 22:11:42 12° SE visible
02 Aug 8.7 00:07:12 10° NW 01:10:41 43° W 02:27:37 17° SW visible
02 Aug 8.6 21:12:33 10° WNW 22:10:15 74° SW 23:47:18 21° SSE visible
03 Aug 9.0 01:58:31 10° NW 02:45:46 22° W 03:47:08 10° WSW visible
03 Aug 9.3 22:56:31 10° WNW 00:00:00 53° WSW 00:00:00 53° WSW visible
